Lid_Strength_Index
2 3 3 3 4 4 5 5 5 5 6 6 6 6 6 5 5 4 4 4 4 4 3 3 3 3 6 12 12 8 3 5 7 8 9 10 11 12 14 13 13 14 13 11 11 11 11
1 2 3 3 3 4 5 5 5 5 5 6 6 6 6 5 5 4 4 4 4 4 3 3 3 3 9 14 8 8 8 7 8 9 10 10 11 11 12 13 14 13 13 13 12 12 12
0 2 2 3 4 4 4 5 5 5 5 6 6 6 6 5 5 5 5 4 4 3 3 3 3 5 11 13 9 9 8 9 8 9 10 10 10 11 12 14 12 13 15 15 14 13 12
-0 1 2 3 3 3 4 4 5 5 6 6 6 6 6 5 5 5 5 4 4 3 3 3 2 9 14 8 9 9 8 9 8 9 9 9 9 11 12 12 13 16 17 19 14 13 12
-0 0 1 2 3 3 4 4 4 5 5 6 7 6 6 5 5 5 5 4 4 3 2 3 8 11 14 7 10 9 9 10 9 9 10 9 10 13 13 17 19 17 20 18 16 13 13
-0 0 1 1 2 3 3 4 4 4 5 6 6 7 6 5 5 5 5 4 3 4 5 4 7 14 12 13 10 10 9 9 11 11 11 12 14 17 17 19 21 20 20 18 19 16 14
-0 0 0 1 2 3 3 4 4 4 4 5 6 6 6 5 5 5 7 8 10 12 10 13 12 12 11 11 9 10 9 10 11 13 16 14 18 19 18 17 17 18 18 19 18 15 15
-0 0 0 1 2 2 3 3 3 3 4 4 5 6 6 6 6 6 9 11 12 11 15 11 10 10 10 9 13 11 9 13 14 16 15 17 18 15 14 15 16 17 19 19 17 14 15
1 0 0 1 1 2 2 3 3 3 4 4 4 5 6 5 6 9 11 11 9 10 14 12 10 11 11 10 13 13 11 13 15 17 16 18 16 14 15 17 17 18 18 18 17 16 16
1 0 1 1 2 3 3 3 3 3 3 3 4 5 6 6 10 10 11 9 9 10 18 15 13 12 11 11 14 11 10 13 15 17 17 17 15 15 16 17 16 19 15 16 16 18 21
1 1 1 1 2 3 3 3 3 3 3 4 5 5 5 7 11 11 10 9 9 12 23 14 14 10 11 14 13 13 11 13 16 16 18 18 17 16 16 16 15 16 14 16 16 18 19
1 1 2 2 2 3 3 3 3 3 3 4 5 5 5 9 10 10 9 10 11 19 24 18 15 15 15 14 14 13 13 12 13 15 16 17 15 16 16 14 14 14 15 17 17 18 27
2 2 2 1 2 2 3 3 3 3 4 5 5 5 7 9 12 10 9 13 20 23 17 20 18 16 17 17 16 15 16 17 18 20 20 18 17 15 14 16 14 15 19 28 27 27 26
1 1 1 1 1 2 3 3 3 4 3 5 6 6 9 10 9 9 11 17 23 22 21 17 17 17 18 17 17 17 18 19 17 19 21 22 23 17 15 16 16 16 17 25 30 27 24
1 1 1 1 2 2 2 3 4 4 5 4 6 11 11 10 8 9 14 23 21 20 18 18 18 21 20 18 18 18 19 19 18 17 21 22 20 16 15 15 15 16 19 14 24 26 25
1 1 2 2 2 2 3 3 4 4 5 5 12 13 12 9 8 11 18 20 20 16 16 16 20 20 24 22 19 19 19 18 18 17 17 18 22 17 15 14 14 14 13 20 23 29 29
1 1 1 2 3 3 3 3 4 5 5 7 13 15 13 10 10 14 22 22 17 16 15 17 19 21 20 21 20 21 19 18 17 17 16 17 19 19 16 17 17 17 19 17 17 19 25
3 2 2 2 2 3 4 4 4 5 6 9 14 18 13 12 16 21 23 18 16 17 16 17 17 18 20 20 23 20 19 19 16 16 17 16 18 22 19 17 16 15 15 16 23 23 20
3 3 3 3 3 3 3 4 4 6 7 12 16 17 13 13 20 21 21 18 17 18 17 18 18 18 18 20 22 20 19 18 16 16 17 16 22 28 22 19 17 17 16 15 21 22 22
3 3 4 3 3 3 3 4 5 5 6 12 16 20 17 15 18 20 22 20 19 17 17 17 18 18 19 22 21 22 19 18 16 16 12 14 21 23 23 20 18 18 16 16 22 28 24
3 3 3 4 4 3 4 4 5 6 7 12 16 18 17 22 20 19 18 18 19 20 18 17 19 18 19 22 24 23 21 19 17 14 17 18 23 24 23 19 19 17 17 17 21 23 23
3 3 3 4 3 3 3 4 5 6 7 13 17 19 19 21 17 18 17 20 19 19 19 19 19 18 19 21 18 21 22 22 20 19 20 19 24 22 25 20 19 20 18 18 18 20 20
1 3 3 3 3 3 3 4 5 6 8 15 15 15 15 17 18 18 19 19 18 18 18 17 17 18 19 18 19 19 18 18 19 20 23 21 23 27 29 22 23 25 21 18 21 22 22
0 1 2 3 3 2 3 4 5 7 7 13 14 14 17 20 18 18 17 17 18 17 19 18 17 17 17 16 17 18 18 18 20 21 18 23 24 28 30 28 30 19 19 18 18 17 19
0 0 0 1 2 1 3 4 6 7 7 12 13 14 15 19 18 18 18 17 17 18 19 18 18 16 16 17 22 26 26 23 25 22 21 20 23 30 28 35 23 20 19 20 20 20 17
0 0 0 0 0 1 2 4 5 6 7 10 11 10 14 17 18 16 16 16 20 21 22 20 17 15 16 20 25 28 27 26 29 27 21 20 23 24 34 31 30 21 19 17 17 23 17
1 1 1 0 0 1 2 3 4 5 6 8 11 10 13 15 16 15 17 17 17 19 22 20 19 19 17 26 28 26 26 26 26 28 29 29 30 29 33 33 26 18 17 16 24 21 16
2 2 1 0 0 1 2 3 3 4 5 7 11 10 11 15 16 14 14 16 17 17 19 19 18 20 23 24 24 25 28 26 27 24 25 26 28 30 33 33 27 17 18 20 18 16 16
2 3 3 1 0 1 1 2 3 4 4 5 12 9 10 14 16 15 15 14 14 13 16 15 17 19 17 20 26 25 29 30 27 27 20 23 23 24 23 22 19 18 20 20 20 18 17